Regional Weather Roundup
Issued by NWS Upton, NY

Home | Current Version | Previous Version | Text Only | Print | Product List | Glossary On
Versions: 1 2 3 4 5 6 7 8 9 10 11 12 13 14 15 16 17 18 19 20 21 22 23 24 25 26 27 28 29 30 31 32 33 34 35 36 37 38 39 40 41 42 43 44 45 46 47 48 49 50
000
ASUS41 KOKX 030405
RWROKX

REGIONAL WEATHER ROUNDUP
NATIONAL WEATHER SERVICE NEW YORK NY
1200 AM EDT WED SEP 03 2014

NOTE: "FAIR" INDICATES FEW OR NO CLOUDS BELOW 12,000 FEET WITH NO
SIGNIFICANT WEATHER AND/OR OBSTRUCTIONS TO VISIBILITY.

NYZ071-072-176-178-NJZ106-104-030500-
NEW YORK CITY METRO AREA


CITY           SKY/WX    TMP DP  RH WIND       PRES   REMARKS
CENTRAL PARK   CLOUDY    82  64  54 W8G24     29.84R
LAGUARDIA APRT MOCLDY    83  65  54 W15G28    29.80R
KENNEDY INTL   MOCLDY    80  67  64 SW22      29.82R
NEWARK/LIBERTY CLOUDY    82  66  58 W20G25    29.82R
BRNX BOT. GARD   N/A     81  64  57 W6        29.83S
TETERBORO      CLOUDY    81  65  58 W14G24    29.80R
$$

NYZ177-179-078>081-030500-
LONG ISLAND NEW YORK

CITY           SKY/WX    TMP DP  RH WIND       PRES   REMARKS
FARMINGDALE    MOCLDY    80  67  64 SW13      29.82R
ISLIP          MOCLDY    81  66  60 SW17G25   29.79S
SHIRLEY        CLEAR     80  69  69 SW15G29   29.81S
WESTHAMPTON    CLEAR     78  71  79 SW15G22   29.82S
MONTAUK POINT    N/A     78  70  76 SW10G20   29.80F
$$

NYZ052-065-067-030500-
HUDSON VALLEY

CITY           SKY/WX    TMP DP  RH WIND       PRES   REMARKS
WHITE PLAINS   MOCLDY    80  65  59 W10G20    29.80R
NEWBURGH       MOCLDY    77  70  78 SW16      29.81R
MONTGOMERY     MOCLDY    75  68  78 SW8       29.80R
POUGHKEEPSIE   CLOUDY    80  68  66 SW15G24   29.76R
ALBANY         CLOUDY    70  67  90 CALM      29.78F
$$

NJZ001-105-106-008-010-013-015-019>022-104-030500-
NEW JERSEY

CITY           SKY/WX    TMP DP  RH WIND       PRES   REMARKS
NEWARK/LIBERTY CLOUDY    82  66  58 W20G25    29.82R
TETERBORO      CLOUDY    81  65  58 W14G24    29.80R
CALDWELL       CLOUDY    78  65  63 W7G18     29.83R
MORRISTOWN     CLOUDY    79  64  61 SW9G16    29.84R
SOMERVILLE     CLOUDY    78  66  66 VRB6      29.83R
LINDEN         FAIR      85  68  57 W12G21    29.84R
SUSSEX         MOCLDY    76  69  79 VRB3      29.85R
ANDOVER          N/A     75  69  81 SW6       29.86R
TRENTON        CLOUDY    77  67  71 W8        29.87R
MILLVILLE      CLOUDY    73  70  90 CALM      29.90R
ATLANTIC CITY  CLOUDY    73  70  90 NW7       29.90R
WRIGHTSTOWN    CLOUDY    72  70  95 W10       29.86R
TOMS RIVER     CLOUDY    73  70  88 SW5       29.88S
BELMAR         CLOUDY    77  64  65 SW10      29.86S
$$

PAZ047>061-062-071-030500-
EASTERN PENNSYLVANIA

CITY           SKY/WX    TMP DP  RH WIND       PRES   REMARKS
PHILADELPHIA   CLOUDY    75  70  84 W9        29.89R
ALLENTOWN      MOCLDY    73  67  81 W9        29.88R
SCRANTON       CLOUDY    72  64  76 W5        29.91R
$$

CTZ002-004>006-009-010-012-RIZ004-006-007-MAZ004-011-015-030500-
SOUTHERN NEW ENGLAND
 IN CT

CITY           SKY/WX    TMP DP  RH WIND       PRES   REMARKS
BRADLEY INTL   MOCLDY    80  70  71 S9        29.73F
HARTFORD       PTCLDY    79  70  74 S6        29.74F
DANBURY        CLOUDY    80  67  64 SW9       29.79S
WTRBRY/OXFORD  MOCLDY    77  70  78 SW6       29.81S
BRIDGEPORT     PTCLDY    82  72  71 SW16      29.76F
MERIDEN        PTCLDY    78  71  79 S5        29.76F
NEW HAVEN      PTCLDY    82  72  71 SW9G18    29.76F
CHESTER        FAIR      79  72  78 S6        29.78F
GROTON         CLEAR     76  72  87 SW8       29.77F
WILLIMANTIC    CLEAR     75  71  87 CALM      29.77F

 IN RI

CITY           SKY/WX    TMP DP  RH WIND       PRES   REMARKS
PROVIDENCE     CLEAR     75  71  87 S7        29.77F
BLOCK ISLAND   CLEAR     73  68  83 SW14      29.80F
WESTERLY       CLEAR     76  70  82 SW6       29.79F

 IN MA

CITY           SKY/WX    TMP DP  RH WIND       PRES   REMARKS
BOSTON         PTCLDY    76  71  85 S9        29.73F
WORCESTER      CLEAR     73  70  90 SW12      29.78F
WESTFIELD      MOCLDY    79  70  74 S7        29.73F
PROVINCETOWN   CLEAR     73  70  88 S12       29.77F
NANTUCKET      CLEAR     70  69  97 SW10      29.82S
$$

ANZ330-335-338-340-345-350-353-355-030500-
COASTAL MARINE OBSERVATIONS


STATION/POSITION TIME  SKY/WX   TEMP    WIND        PRES    VSBY  WAVE
                                AIR SEA DIR/SP/G                  HT/PER
                 (UTC)          (F)     (DEG/KT/KT) (MB)    (MI)  (FT/S)
NY HARB ENTRANCE NOT AVBL
4S FIRE IS       NOT AVBL
23SW MTP         0400                                 N/A           3/ 6
HUDSON CANYON    0400            76 75  250/ 16/ 19 1011.6          3/ 6
EXECUTION ROCKS  0400            82 75  250/ 19/ 27   N/A
WESTERN LI SOUND 0400            82     240/ 19/ 27   N/A           1/ 2
CENTRAL LI SOUND 0300            77 75  200/ 12/ 14   N/A           2/ 3
EASTERN LI SOUND 0300            75 71  220/ 12/ 16   N/A
ROBBINS REEF     0400            82     240/ 23/ 28   N/A
$$


>>>>>>>>>>>>>>>>>>>>>>>>>>>> KEY <<<<<<<<<<<<<<<<<<<<<<<<<<<
>                                                          <
>     SKY/WX - SKY CONDITION/PRESENT WEATHER               <
>     TMP    - TEMPERATURE IN FAHRENHEIT                   <
>     DP     - DEWPOINT IN FAHRENHEIT                      <
>     RH     - RELATIVE HUMIDITY IN PERCENT                <
>     WIND   - DIRECTION AND SPEED IN MPH                  <
>     PRES   - MEAN SEA LEVEL PRESSURE IN INCHES OF HG     <
>     WCI    - WIND CHILL INDEX                            <
>     VSB    - VISIBILITY IN MILES                         <
>     HX     - HEAT INDEX                                  <
>     TC     - TEMPERATURE IN CELSIUS                      <
>     VRB    - VARIABLE WIND DIRECTION                     <
>                                                          <
>>>>>>>>>>>>>>>>>>>>>>>>>>>> KEY <<<<<<<<<<<<<<<<<<<<<<<<<<<




USA.gov is the U.S. government's official web portal to all federal, state and local government web resources and services.